International Skating Union - Official Site

Essent ISU World Cup Heerenveen
December 2-4, 2011

Draw | Lap Times | Index | World Cup

Referee: Daniel  CABELDUC  (SWE)
Starter: Wim  BOERDIJK  (NED)
StartTime: EndTime: Air Temp: Ice Temp: Humidity:
18:16 20:09 17℃ -13.5℃ 25%
Result 10000m Men Division B
Rankings as of Oct 12 2012 5:02PM
Rank: No.: Name: Nation: Time: Behind: Points:
1 32 Alexej  BAUMGÄRTNER GER GER 13:08.69400m - 34.79 - (34.7)
800m - 1:05.40 - (30.6)
1200m - 1:36.36 - (30.9)
1600m - 2:07.92 - (31.5)
2000m - 2:39.29 - (31.3)
2400m - 3:10.52 - (31.2)
2800m - 3:41.40 - (30.8)
3200m - 4:12.46 - (31.0)
3600m - 4:43.37 - (30.9)
4000m - 5:14.45 - (31.0)
4400m - 5:45.41 - (30.9)
4800m - 6:16.65 - (31.2)
5200m - 6:47.84 - (31.1)
5600m - 7:19.15 - (31.3)
6000m - 7:50.42 - (31.2)
6400m - 8:21.84 - (31.4)
6800m - 8:53.14 - (31.3)
7200m - 9:24.44 - (31.3)
7600m - 9:56.26 - (31.8)
8000m - 10:28.52 - (32.2)
8400m - 11:00.48 - (31.9)
8800m - 11:32.36 - (31.8)
9200m - 12:04.40 - (32.0)
9600m - 12:36.52 - (32.1)
10000m - 13:08.69 - (32.1)
35
2 69 Seung-Hoon  LEE KOR KOR 13:10.08400m - 35.39 - (35.3)
800m - 1:06.16 - (30.7)
1200m - 1:37.20 - (31.0)
1600m - 2:08.11 - (30.9)
2000m - 2:38.92 - (30.8)
2400m - 3:09.79 - (30.8)
2800m - 3:40.96 - (31.1)
3200m - 4:12.08 - (31.1)
3600m - 4:43.37 - (31.2)
4000m - 5:14.82 - (31.4)
4400m - 5:46.21 - (31.3)
4800m - 6:17.54 - (31.3)
5200m - 6:49.25 - (31.7)
5600m - 7:20.83 - (31.5)
6000m - 7:52.53 - (31.7)
6400m - 8:24.19 - (31.6)
6800m - 8:55.81 - (31.6)
7200m - 9:27.49 - (31.6)
7600m - 9:59.18 - (31.6)
8000m - 10:30.88 - (31.7)
8400m - 11:02.68 - (31.8)
8800m - 11:34.52 - (31.8)
9200m - 12:06.54 - (32.0)
9600m - 12:38.35 - (31.8)
10000m - 13:10.08 - (31.7)
1.39 30
3 40 Marco  WEBER GER GER 13:17.03400m - 35.74 - (35.7)
800m - 1:07.55 - (31.8)
1200m - 1:39.20 - (31.6)
1600m - 2:10.70 - (31.5)
2000m - 2:41.97 - (31.2)
2400m - 3:13.17 - (31.2)
2800m - 3:44.52 - (31.3)
3200m - 4:15.74 - (31.2)
3600m - 4:47.22 - (31.4)
4000m - 5:18.67 - (31.4)
4400m - 5:50.08 - (31.4)
4800m - 6:21.50 - (31.4)
5200m - 6:53.15 - (31.6)
5600m - 7:24.84 - (31.6)
6000m - 7:56.61 - (31.7)
6400m - 8:28.63 - (32.0)
6800m - 9:00.59 - (31.9)
7200m - 9:32.25 - (31.6)
7600m - 10:04.32 - (32.0)
8000m - 10:36.54 - (32.2)
8400m - 11:08.64 - (32.1)
8800m - 11:40.67 - (32.0)
9200m - 12:12.88 - (32.2)
9600m - 12:45.14 - (32.2)
10000m - 13:17.03 - (31.8)
8.34 25
4 33 Patrick  BECKERT GER GER 13:24.36400m - 35.16 - (35.1)
800m - 1:05.87 - (30.7)
1200m - 1:37.59 - (31.7)
1600m - 2:10.12 - (32.5)
2000m - 2:42.50 - (32.3)
2400m - 3:14.66 - (32.1)
2800m - 3:46.49 - (31.8)
3200m - 4:18.65 - (32.1)
3600m - 4:50.55 - (31.9)
4000m - 5:22.16 - (31.6)
4400m - 5:54.05 - (31.8)
4800m - 6:25.81 - (31.7)
5200m - 6:57.55 - (31.7)
5600m - 7:29.36 - (31.8)
6000m - 8:01.25 - (31.8)
6400m - 8:33.15 - (31.9)
6800m - 9:05.08 - (31.9)
7200m - 9:37.02 - (31.9)
7600m - 10:09.14 - (32.1)
8000m - 10:41.40 - (32.2)
8400m - 11:14.11 - (32.7)
8800m - 11:47.05 - (32.9)
9200m - 12:19.51 - (32.4)
9600m - 12:52.01 - (32.5)
10000m - 13:24.36 - (32.3)
15.67 21
5 47 Hiroki  HIRAKO JPN JPN 13:24.64400m - 34.86 - (34.8)
800m - 1:06.17 - (31.3)
1200m - 1:38.15 - (31.9)
1600m - 2:10.24 - (32.0)
2000m - 2:42.47 - (32.2)
2400m - 3:14.51 - (32.0)
2800m - 3:46.53 - (32.0)
3200m - 4:18.69 - (32.1)
3600m - 4:50.83 - (32.1)
4000m - 5:23.02 - (32.1)
4400m - 5:55.35 - (32.3)
4800m - 6:27.41 - (32.0)
5200m - 6:59.45 - (32.0)
5600m - 7:31.70 - (32.2)
6000m - 8:03.99 - (32.2)
6400m - 8:36.33 - (32.3)
6800m - 9:08.41 - (32.0)
7200m - 9:40.58 - (32.1)
7600m - 10:13.00 - (32.4)
8000m - 10:45.12 - (32.1)
8400m - 11:17.80 - (32.6)
8800m - 11:49.99 - (32.1)
9200m - 12:22.15 - (32.1)
9600m - 12:53.53 - (31.3)
10000m - 13:24.64 - (31.1)
15.95 18
6 114 Denis  YUSKOV RUS RUS 13:26.94400m - 35.52 - (35.5)
800m - 1:06.79 - (31.2)
1200m - 1:38.89 - (32.1)
1600m - 2:11.44 - (32.5)
2000m - 2:43.28 - (31.8)
2400m - 3:15.33 - (32.0)
2800m - 3:47.10 - (31.7)
3200m - 4:19.59 - (32.4)
3600m - 4:51.47 - (31.8)
4000m - 5:23.11 - (31.6)
4400m - 5:55.46 - (32.3)
4800m - 6:27.40 - (31.9)
5200m - 6:59.52 - (32.1)
5600m - 7:31.53 - (32.0)
6000m - 8:03.62 - (32.0)
6400m - 8:35.78 - (32.1)
6800m - 9:07.38 - (31.6)
7200m - 9:39.12 - (31.7)
7600m - 10:11.36 - (32.2)
8000m - 10:43.97 - (32.6)
8400m - 11:16.89 - (32.9)
8800m - 11:49.42 - (32.5)
9200m - 12:22.04 - (32.6)
9600m - 12:54.63 - (32.5)
10000m - 13:26.94 - (32.3)
18.25 15
7 55 Dmitry  BABENKO KAZ KAZ 13:27.89400m - 35.47 - (35.4)
800m - 1:08.83 - (33.3)
1200m - 1:41.18 - (32.3)
1600m - 2:13.03 - (31.8)
2000m - 2:45.12 - (32.0)
2400m - 3:17.15 - (32.0)
2800m - 3:49.18 - (32.0)
3200m - 4:21.14 - (31.9)
3600m - 4:52.95 - (31.8)
4000m - 5:24.92 - (31.9)
4400m - 5:57.02 - (32.1)
4800m - 6:29.14 - (32.1)
5200m - 7:01.33 - (32.1)
5600m - 7:33.50 - (32.1)
6000m - 8:05.97 - (32.4)
6400m - 8:38.35 - (32.3)
6800m - 9:10.92 - (32.5)
7200m - 9:43.89 - (32.9)
7600m - 10:16.14 - (32.2)
8000m - 10:48.50 - (32.3)
8400m - 11:19.13 - (30.6)
8800m - 11:49.89 - (30.7)
9200m - 12:22.10 - (32.2)
9600m - 12:54.98 - (32.8)
10000m - 13:27.89 - (32.9)
19.20 13
8 6 Jordan  BELCHOS CAN CAN 13:35.45400m - 35.35 - (35.3)
800m - 1:06.56 - (31.2)
1200m - 1:37.58 - (31.0)
1600m - 2:08.92 - (31.3)
2000m - 2:40.21 - (31.2)
2400m - 3:11.44 - (31.2)
2800m - 3:43.05 - (31.6)
3200m - 4:15.04 - (31.9)
3600m - 4:46.87 - (31.8)
4000m - 5:18.80 - (31.9)
4400m - 5:50.96 - (32.1)
4800m - 6:23.05 - (32.0)
5200m - 6:55.41 - (32.3)
5600m - 7:28.11 - (32.7)
6000m - 8:00.74 - (32.6)
6400m - 8:33.83 - (33.0)
6800m - 9:07.01 - (33.1)
7200m - 9:40.40 - (33.3)
7600m - 10:14.11 - (33.7)
8000m - 10:47.98 - (33.8)
8400m - 11:21.47 - (33.4)
8800m - 11:55.20 - (33.7)
9200m - 12:29.09 - (33.8)
9600m - 13:02.71 - (33.6)
10000m - 13:35.45 - (32.7)
26.76 11
9 93 Fredrik  VAN DER HORST NOR NOR 13:39.48400m - 36.05 - (36.0)
800m - 1:07.22 - (31.1)
1200m - 1:39.45 - (32.2)
1600m - 2:11.81 - (32.3)
2000m - 2:44.14 - (32.3)
2400m - 3:16.52 - (32.3)
2800m - 3:48.55 - (32.0)
3200m - 4:20.86 - (32.3)
3600m - 4:52.98 - (32.1)
4000m - 5:25.76 - (32.7)
4400m - 5:58.39 - (32.6)
4800m - 6:30.89 - (32.4)
5200m - 7:03.39 - (32.5)
5600m - 7:36.14 - (32.7)
6000m - 8:09.45 - (33.3)
6400m - 8:42.48 - (33.0)
6800m - 9:15.45 - (32.9)
7200m - 9:48.03 - (32.5)
7600m - 10:20.84 - (32.8)
8000m - 10:53.89 - (33.0)
8400m - 11:27.21 - (33.3)
8800m - 12:00.51 - (33.3)
9200m - 12:33.59 - (33.0)
9600m - 13:06.09 - (32.5)
10000m - 13:39.48 - (33.4)
30.79 10
10 62 Hyung-Joon  JOO KOR KOR 13:41.28400m - 37.28 - (37.2)
800m - 1:09.79 - (32.5)
1200m - 1:42.98 - (33.1)
1600m - 2:15.50 - (32.5)
2000m - 2:48.24 - (32.7)
2400m - 3:20.87 - (32.6)
2800m - 3:53.71 - (32.8)
3200m - 4:26.30 - (32.5)
3600m - 4:59.04 - (32.7)
4000m - 5:31.52 - (32.4)
4400m - 6:04.45 - (32.9)
4800m - 6:37.29 - (32.8)
5200m - 7:10.11 - (32.8)
5600m - 7:42.87 - (32.7)
6000m - 8:15.72 - (32.8)
6400m - 8:48.79 - (33.0)
6800m - 9:21.98 - (33.1)
7200m - 9:55.08 - (33.1)
7600m - 10:27.88 - (32.8)
8000m - 11:00.32 - (32.4)
8400m - 11:33.13 - (32.8)
8800m - 12:05.58 - (32.4)
9200m - 12:37.99 - (32.4)
9600m - 13:09.99 - (32.0)
10000m - 13:41.28 - (31.2)
32.59 9
11 115 Roger  SCHNEIDER SUI SUI 13:43.30400m - 36.66 - (36.6)
800m - 1:08.10 - (31.4)
1200m - 1:39.78 - (31.6)
1600m - 2:11.36 - (31.5)
2000m - 2:43.40 - (32.0)
2400m - 3:15.41 - (32.0)
2800m - 3:47.52 - (32.1)
3200m - 4:19.90 - (32.3)
3600m - 4:52.39 - (32.4)
4000m - 5:25.10 - (32.7)
4400m - 5:57.99 - (32.8)
4800m - 6:30.69 - (32.7)
5200m - 7:03.82 - (33.1)
5600m - 7:36.97 - (33.1)
6000m - 8:10.47 - (33.5)
6400m - 8:43.78 - (33.3)
6800m - 9:17.12 - (33.3)
7200m - 9:50.36 - (33.2)
7600m - 10:23.81 - (33.4)
8000m - 10:57.01 - (33.2)
8400m - 11:30.41 - (33.4)
8800m - 12:03.86 - (33.4)
9200m - 12:37.18 - (33.3)
9600m - 13:10.32 - (33.1)
10000m - 13:43.30 - (32.9)
34.61 8
12 2 Joshua  LOSE AUS AUS 13:47.27400m - 36.74 - (36.7)
800m - 1:09.19 - (32.4)
1200m - 1:41.93 - (32.7)
1600m - 2:14.49 - (32.5)
2000m - 2:47.19 - (32.7)
2400m - 3:19.47 - (32.2)
2800m - 3:52.08 - (32.6)
3200m - 4:24.65 - (32.5)
3600m - 4:57.96 - (33.3)
4000m - 5:30.80 - (32.8)
4400m - 6:03.72 - (32.9)
4800m - 6:36.69 - (32.9)
5200m - 7:09.85 - (33.1)
5600m - 7:42.86 - (33.0)
6000m - 8:16.02 - (33.1)
6400m - 8:49.08 - (33.0)
6800m - 9:22.22 - (33.1)
7200m - 9:55.18 - (32.9)
7600m - 10:28.41 - (33.2)
8000m - 11:01.70 - (33.2)
8400m - 11:34.96 - (33.2)
8800m - 12:08.08 - (33.1)
9200m - 12:41.09 - (33.0)
9600m - 13:14.11 - (33.0)
10000m - 13:47.27 - (33.1)
38.58 7
13 122 Patrick  MEEK USA USA 13:48.63400m - 36.66 - (36.6)
800m - 1:09.93 - (33.2)
1200m - 1:43.77 - (33.8)
1600m - 2:17.29 - (33.5)
2000m - 2:50.38 - (33.0)
2400m - 3:23.40 - (33.0)
2800m - 3:56.51 - (33.1)
3200m - 4:29.50 - (32.9)
3600m - 5:02.53 - (33.0)
4000m - 5:35.25 - (32.7)
4400m - 6:08.05 - (32.8)
4800m - 6:40.70 - (32.6)
5200m - 7:13.40 - (32.7)
5600m - 7:45.94 - (32.5)
6000m - 8:18.31 - (32.3)
6400m - 8:50.99 - (32.6)
6800m - 9:23.67 - (32.6)
7200m - 9:56.30 - (32.6)
7600m - 10:29.10 - (32.8)
8000m - 11:01.96 - (32.8)
8400m - 11:34.85 - (32.8)
8800m - 12:07.93 - (33.0)
9200m - 12:41.30 - (33.3)
9600m - 13:14.76 - (33.4)
10000m - 13:48.63 - (33.8)
39.94 6
14 45 Luca  STEFANI ITA ITA 13:53.17400m - 36.03 - (36.0)
800m - 1:08.60 - (32.5)
1200m - 1:41.49 - (32.8)
1600m - 2:14.39 - (32.8)
2000m - 2:47.19 - (32.8)
2400m - 3:19.95 - (32.7)
2800m - 3:52.48 - (32.5)
3200m - 4:25.16 - (32.6)
3600m - 4:58.11 - (32.9)
4000m - 5:31.03 - (32.9)
4400m - 6:04.13 - (33.1)
4800m - 6:37.36 - (33.2)
5200m - 7:10.69 - (33.3)
5600m - 7:44.27 - (33.5)
6000m - 8:17.61 - (33.3)
6400m - 8:51.23 - (33.6)
6800m - 9:25.20 - (33.9)
7200m - 9:58.94 - (33.7)
7600m - 10:32.58 - (33.6)
8000m - 11:06.43 - (33.8)
8400m - 11:40.00 - (33.5)
8800m - 12:13.41 - (33.4)
9200m - 12:46.90 - (33.4)
9600m - 13:20.18 - (33.2)
10000m - 13:53.17 - (32.9)
44.48 5
15 30 Ewen  FERNANDEZ FRA FRA 13:55.08400m - 36.52 - (36.5)
800m - 1:09.81 - (33.2)
1200m - 1:42.89 - (33.0)
1600m - 2:15.96 - (33.0)
2000m - 2:48.82 - (32.8)
2400m - 3:21.83 - (33.0)
2800m - 3:55.08 - (33.2)
3200m - 4:28.23 - (33.1)
3600m - 5:01.25 - (33.0)
4000m - 5:34.14 - (32.8)
4400m - 6:07.37 - (33.2)
4800m - 6:40.67 - (33.3)
5200m - 7:13.96 - (33.2)
5600m - 7:47.46 - (33.5)
6000m - 8:20.69 - (33.2)
6400m - 8:53.73 - (33.0)
6800m - 9:26.67 - (32.9)
7200m - 9:59.96 - (33.2)
7600m - 10:33.12 - (33.1)
8000m - 11:06.51 - (33.3)
8400m - 11:40.14 - (33.6)
8800m - 12:13.90 - (33.7)
9200m - 12:48.04 - (34.1)
9600m - 13:21.97 - (33.9)
10000m - 13:55.08 - (33.1)
46.39 4
16 17 Stefan  WAPLES CAN CAN 14:02.36400m - 36.41 - (36.4)
800m - 1:10.12 - (33.7)
1200m - 1:43.99 - (33.8)
1600m - 2:17.63 - (33.6)
2000m - 2:51.47 - (33.8)
2400m - 3:25.57 - (34.1)
2800m - 3:59.32 - (33.7)
3200m - 4:32.97 - (33.6)
3600m - 5:06.75 - (33.7)
4000m - 5:40.42 - (33.6)
4400m - 6:13.72 - (33.3)
4800m - 6:47.00 - (33.2)
5200m - 7:20.44 - (33.4)
5600m - 7:54.18 - (33.7)
6000m - 8:28.01 - (33.8)
6400m - 9:02.13 - (34.1)
6800m - 9:36.63 - (34.5)
7200m - 10:10.61 - (33.9)
7600m - 10:43.71 - (33.1)
8000m - 11:16.71 - (33.0)
8400m - 11:49.22 - (32.5)
8800m - 12:21.97 - (32.7)
9200m - 12:55.38 - (33.4)
9600m - 13:28.90 - (33.5)
10000m - 14:02.36 - (33.4)
53.67 3
17 102 Jan  SZYMANSKI POL POL 14:04.23400m - 36.92 - (36.9)
800m - 1:09.77 - (32.8)
1200m - 1:41.72 - (31.9)
1600m - 2:14.21 - (32.4)
2000m - 2:46.18 - (31.9)
2400m - 3:19.26 - (33.0)
2800m - 3:51.75 - (32.4)
3200m - 4:23.82 - (32.0)
3600m - 4:56.74 - (32.9)
4000m - 5:30.02 - (33.2)
4400m - 6:03.05 - (33.0)
4800m - 6:36.72 - (33.6)
5200m - 7:10.03 - (33.3)
5600m - 7:43.79 - (33.7)
6000m - 8:17.17 - (33.3)
6400m - 8:50.89 - (33.7)
6800m - 9:24.86 - (33.9)
7200m - 9:59.52 - (34.6)
7600m - 10:33.55 - (34.0)
8000m - 11:06.68 - (33.1)
8400m - 11:40.50 - (33.8)
8800m - 12:15.15 - (34.6)
9200m - 12:51.47 - (36.3)
9600m - 13:28.08 - (36.6)
10000m - 14:04.23 - (36.1)
55.54 2
18 7 Scott  BICKERTON CAN CAN 14:08.98400m - 36.31 - (36.3)
800m - 1:09.05 - (32.7)
1200m - 1:42.42 - (33.3)
1600m - 2:15.49 - (33.0)
2000m - 2:48.37 - (32.8)
2400m - 3:21.10 - (32.7)
2800m - 3:54.11 - (33.0)
3200m - 4:26.99 - (32.8)
3600m - 4:59.86 - (32.8)
4000m - 5:32.74 - (32.8)
4400m - 6:05.73 - (32.9)
4800m - 6:39.05 - (33.3)
5200m - 7:12.39 - (33.3)
5600m - 7:46.02 - (33.6)
6000m - 8:19.93 - (33.9)
6400m - 8:53.41 - (33.4)
6800m - 9:27.55 - (34.1)
7200m - 10:01.65 - (34.1)
7600m - 10:35.78 - (34.1)
8000m - 11:10.43 - (34.6)
8400m - 11:45.62 - (35.1)
8800m - 12:20.27 - (34.6)
9200m - 12:55.54 - (35.2)
9600m - 13:32.65 - (37.1)
10000m - 14:08.98 - (36.3)
60.29 1
19 54 Norimasa  ZAIKE JPN JPN 14:15.12400m - 36.43 - (36.4)
800m - 1:09.45 - (33.0)
1200m - 1:42.51 - (33.0)
1600m - 2:16.06 - (33.5)
2000m - 2:49.48 - (33.4)
2400m - 3:23.03 - (33.5)
2800m - 3:56.22 - (33.1)
3200m - 4:29.68 - (33.4)
3600m - 5:02.88 - (33.2)
4000m - 5:36.55 - (33.6)
4400m - 6:10.32 - (33.7)
4800m - 6:44.13 - (33.8)
5200m - 7:17.63 - (33.5)
5600m - 7:51.53 - (33.9)
6000m - 8:25.36 - (33.8)
6400m - 8:59.30 - (33.9)
6800m - 9:33.37 - (34.0)
7200m - 10:08.91 - (35.5)
7600m - 10:43.15 - (34.2)
8000m - 11:17.04 - (33.8)
8400m - 11:51.45 - (34.4)
8800m - 12:27.96 - (36.5)
9200m - 13:04.07 - (36.1)
9600m - 13:39.42 - (35.3)
10000m - 14:15.12 - (35.7)
66.43 0
20 99 Slawomir  CHMURA POL POL 14:16.06400m - 37.30 - (37.3)
800m - 1:10.21 - (32.9)
1200m - 1:43.84 - (33.6)
1600m - 2:17.16 - (33.3)
2000m - 2:50.39 - (33.2)
2400m - 3:23.49 - (33.1)
2800m - 3:56.97 - (33.4)
3200m - 4:30.46 - (33.4)
3600m - 5:04.19 - (33.7)
4000m - 5:38.11 - (33.9)
4400m - 6:12.31 - (34.2)
4800m - 6:46.74 - (34.4)
5200m - 7:21.26 - (34.5)
5600m - 7:54.99 - (33.7)
6000m - 8:28.38 - (33.3)
6400m - 9:01.54 - (33.1)
6800m - 9:34.67 - (33.1)
7200m - 10:08.29 - (33.6)
7600m - 10:42.76 - (34.4)
8000m - 11:17.83 - (35.0)
8400m - 11:53.75 - (35.9)
8800m - 12:29.69 - (35.9)
9200m - 13:04.90 - (35.2)
9600m - 13:40.03 - (35.1)
10000m - 14:16.06 - (36.0)
67.37 0